Time,TemperatureF,DewpointF,PressureIn,WindDirection,WindDirectionDegrees,WindSpeedMPH,WindSpeedGustMPH,Humidity,HourlyPrecipIn,Conditions,Clouds,dailyrainin,SoftwareType,DateUTC
2013-07-13 00:12:00,49.8,48.0,29.86,SSW,204,0.0,0.0,93,0.00,,,0.00,weatherlink.com 1.10,2013-07-13 07:12:00,
2013-07-13 00:27:00,49.6,48.0,29.86,SSW,204,0.0,0.0,93,0.00,,,0.00,weatherlink.com 1.10,2013-07-13 07:27:00,
2013-07-13 00:42:00,49.3,47.0,29.86,SSW,204,0.0,0.0,93,0.00,,,0.00,weatherlink.com 1.10,2013-07-13 07:42:00,
2013-07-13 00:57:00,49.2,47.0,29.86,SSW,204,0.0,0.0,93,0.00,,,0.00,weatherlink.com 1.10,2013-07-13 07:57:00,
2013-07-13 01:12:00,48.8,47.0,29.86,SSW,204,0.0,0.0,93,0.00,,,0.00,weatherlink.com 1.10,2013-07-13 08:12:00,
2013-07-13 01:27:00,48.8,47.0,29.86,SSW,204,0.0,0.0,94,0.00,,,0.00,weatherlink.com 1.10,2013-07-13 08:27:00,
2013-07-13 01:42:00,48.8,47.0,29.86,SSW,204,0.0,1.0,94,0.00,,,0.00,weatherlink.com 1.10,2013-07-13 08:42:00,
2013-07-13 01:57:00,48.5,47.0,29.86,SSW,204,0.0,0.0,94,0.00,,,0.00,weatherlink.com 1.10,2013-07-13 08:57:00,
2013-07-13 02:12:00,47.9,46.0,29.86,SSW,204,0.0,0.0,93,0.00,,,0.00,weatherlink.com 1.10,2013-07-13 09:12:00,
2013-07-13 02:27:00,47.6,46.0,29.86,SSW,204,0.0,0.0,94,0.00,,,0.00,weatherlink.com 1.10,2013-07-13 09:27:00,
2013-07-13 02:42:00,47.6,46.0,29.86,SSW,204,0.0,0.0,94,0.00,,,0.00,weatherlink.com 1.10,2013-07-13 09:42:00,
2013-07-13 02:57:00,47.4,46.0,29.87,SSW,204,0.0,0.0,94,0.00,,,0.00,weatherlink.com 1.10,2013-07-13 09:57:00,
2013-07-13 03:12:00,47.2,46.0,29.87,SSW,204,0.0,0.0,94,0.00,,,0.00,weatherlink.com 1.10,2013-07-13 10:12:00,
2013-07-13 03:27:00,47.2,46.0,29.86,SSW,204,0.0,0.0,94,0.00,,,0.00,weatherlink.com 1.10,2013-07-13 10:27:00,
2013-07-13 03:42:00,47.4,46.0,29.86,SSW,204,0.0,0.0,95,0.00,,,0.00,weatherlink.com 1.10,2013-07-13 10:42:00,
2013-07-13 03:57:00,47.3,46.0,29.86,SSW,204,0.0,0.0,94,0.00,,,0.00,weatherlink.com 1.10,2013-07-13 10:57:00,
2013-07-13 04:12:00,46.9,45.0,29.87,SSW,204,0.0,0.0,94,0.00,,,0.00,weatherlink.com 1.10,2013-07-13 11:12:00,
2013-07-13 04:27:00,46.7,45.0,29.87,SSW,204,0.0,0.0,94,0.00,,,0.00,weatherlink.com 1.10,2013-07-13 11:27:00,
2013-07-13 04:42:00,46.4,45.0,29.86,SSW,204,0.0,0.0,94,0.00,,,0.00,weatherlink.com 1.10,2013-07-13 11:42:00,
2013-07-13 04:57:00,46.3,45.0,29.87,SSW,204,0.0,0.0,95,0.00,,,0.00,weatherlink.com 1.10,2013-07-13 11:57:00,
2013-07-13 05:12:00,46.5,45.0,29.87,SSW,204,0.0,0.0,95,0.00,,,0.00,weatherlink.com 1.10,2013-07-13 12:12:00,
2013-07-13 05:28:00,45.9,44.0,29.87,SSW,204,0.0,0.0,94,0.00,,,0.00,weatherlink.com 1.10,2013-07-13 12:28:00,
2013-07-13 05:43:00,46.1,45.0,29.88,SSW,204,0.0,0.0,95,0.00,,,0.00,weatherlink.com 1.10,2013-07-13 12:43:00,
2013-07-13 05:58:00,45.9,45.0,29.88,SSW,204,0.0,0.0,95,0.00,,,0.00,weatherlink.com 1.10,2013-07-13 12:58:00,
2013-07-13 06:13:00,46.0,45.0,29.88,SSW,204,0.0,0.0,95,0.00,,,0.00,weatherlink.com 1.10,2013-07-13 13:13:00,
2013-07-13 06:28:00,46.2,45.0,29.89,SSW,210,0.0,0.0,95,0.00,,,0.00,weatherlink.com 1.10,2013-07-13 13:28:00,
2013-07-13 06:43:00,46.2,45.0,29.89,SSW,210,0.0,0.0,95,0.00,,,0.00,weatherlink.com 1.10,2013-07-13 13:43:00,
2013-07-13 06:58:00,46.5,45.0,29.89,SSW,210,0.0,0.0,95,0.00,,,0.00,weatherlink.com 1.10,2013-07-13 13:58:00,
2013-07-13 07:13:00,47.1,46.0,29.90,SSW,210,0.0,2.0,95,0.00,,,0.00,weatherlink.com 1.10,2013-07-13 14:13:00,
2013-07-13 07:28:00,47.7,47.0,29.90,SSW,210,0.0,0.0,96,0.01,,,0.01,weatherlink.com 1.10,2013-07-13 14:28:00,
2013-07-13 07:43:00,48.7,48.0,29.90,SSW,210,0.0,1.0,96,0.01,,,0.01,weatherlink.com 1.10,2013-07-13 14:43:00,
2013-07-13 07:58:00,50.0,49.0,29.91,SSW,210,0.0,1.0,96,0.01,,,0.01,weatherlink.com 1.10,2013-07-13 14:58:00,
2013-07-13 08:13:00,50.9,50.0,29.91,SSW,210,0.0,0.0,96,0.01,,,0.01,weatherlink.com 1.10,2013-07-13 15:13:00,
2013-07-13 08:28:00,52.2,51.0,29.91,SSW,210,0.0,0.0,96,0.00,,,0.01,weatherlink.com 1.10,2013-07-13 15:28:00,
2013-07-13 08:43:00,53.5,52.0,29.92,SW,235,0.0,2.0,96,0.00,,,0.01,weatherlink.com 1.10,2013-07-13 15:43:00,
2013-07-13 08:58:00,55.0,53.0,29.92,WSW,237,0.0,1.0,93,0.00,,,0.01,weatherlink.com 1.10,2013-07-13 15:58:00,
2013-07-13 09:13:00,56.9,54.0,29.92,WSW,248,0.0,1.0,89,0.00,,,0.01,weatherlink.com 1.10,2013-07-13 16:13:00,
2013-07-13 09:28:00,59.3,55.0,29.92,WSW,248,0.0,1.0,85,0.00,,,0.01,weatherlink.com 1.10,2013-07-13 16:28:00,
2013-07-13 09:43:00,61.2,55.0,29.91,WNW,292,0.0,3.0,81,0.00,,,0.01,weatherlink.com 1.10,2013-07-13 16:43:00,
2013-07-13 09:58:00,64.2,57.0,29.91,SSW,209,1.0,2.0,78,0.00,,,0.01,weatherlink.com 1.10,2013-07-13 16:58:00,
2013-07-13 10:13:00,65.4,57.0,29.91,SSW,211,0.0,3.0,74,0.00,,,0.01,weatherlink.com 1.10,2013-07-13 17:13:00,
2013-07-13 10:28:00,66.4,57.0,29.91,NNW,334,0.0,2.0,71,0.00,,,0.01,weatherlink.com 1.10,2013-07-13 17:28:00,
2013-07-13 10:43:00,68.1,57.0,29.91,SW,233,0.0,4.0,67,0.00,,,0.01,weatherlink.com 1.10,2013-07-13 17:43:00,
2013-07-13 10:59:00,69.7,58.0,29.91,SW,221,0.0,3.0,66,0.00,,,0.01,weatherlink.com 1.10,2013-07-13 17:59:00,
2013-07-13 11:14:00,71.6,58.0,29.91,WSW,240,0.0,2.0,63,0.00,,,0.01,weatherlink.com 1.10,2013-07-13 18:14:00,
2013-07-13 11:29:00,73.1,58.0,29.91,WSW,244,0.0,3.0,59,0.00,,,0.01,weatherlink.com 1.10,2013-07-13 18:29:00,
2013-07-13 11:44:00,75.4,59.0,29.91,SW,232,0.0,2.0,57,0.00,,,0.01,weatherlink.com 1.10,2013-07-13 18:44:00,
2013-07-13 11:59:00,76.2,59.0,29.91,WSW,258,1.0,7.0,56,0.00,,,0.01,weatherlink.com 1.10,2013-07-13 18:59:00,
2013-07-13 12:14:00,76.3,60.0,29.90,West,277,2.0,5.0,58,0.00,,,0.01,weatherlink.com 1.10,2013-07-13 19:14:00,
2013-07-13 12:29:00,76.7,61.0,29.91,South,188,0.0,5.0,59,0.00,,,0.01,weatherlink.com 1.10,2013-07-13 19:29:00,
2013-07-13 12:44:00,76.9,60.0,29.91,SSW,205,0.0,4.0,57,0.00,,,0.01,weatherlink.com 1.10,2013-07-13 19:44:00,
2013-07-13 12:59:00,76.4,59.0,29.90,SSW,194,0.0,6.0,55,0.00,,,0.01,weatherlink.com 1.10,2013-07-13 19:59:00,
2013-07-13 13:14:00,77.4,59.0,29.90,WNW,300,0.0,6.0,54,0.00,,,0.01,weatherlink.com 1.10,2013-07-13 20:14:00,
2013-07-13 13:29:00,77.8,60.0,29.89,SW,234,1.0,6.0,55,0.00,,,0.01,weatherlink.com 1.10,2013-07-13 20:29:00,
2013-07-13 13:44:00,78.8,61.0,29.89,SW,234,0.0,5.0,54,0.00,,,0.01,weatherlink.com 1.10,2013-07-13 20:44:00,
2013-07-13 13:59:00,79.4,59.0,29.89,WSW,250,1.0,9.0,50,0.00,,,0.01,weatherlink.com 1.10,2013-07-13 20:59:00,
2013-07-13 14:14:00,80.1,60.0,29.89,SSW,209,2.0,6.0,51,0.00,,,0.01,weatherlink.com 1.10,2013-07-13 21:14:00,
2013-07-13 14:29:00,81.0,58.0,29.88,SSW,203,0.0,5.0,46,0.00,,,0.01,weatherlink.com 1.10,2013-07-13 21:29:00,
2013-07-13 14:44:00,83.4,62.0,29.88,SSW,207,0.0,3.0,48,0.00,,,0.01,weatherlink.com 1.10,2013-07-13 21:44:00,
2013-07-13 14:59:00,81.9,60.0,29.88,WSW,254,2.0,7.0,48,0.00,,,0.01,weatherlink.com 1.10,2013-07-13 21:59:00,
2013-07-13 15:14:00,81.0,60.0,29.88,WSW,250,0.0,6.0,49,0.00,,,0.01,weatherlink.com 1.10,2013-07-13 22:14:00,
2013-07-13 15:29:00,81.4,59.0,29.87,SW,219,0.0,6.0,47,0.00,,,0.01,weatherlink.com 1.10,2013-07-13 22:29:00,
2013-07-13 15:44:00,81.0,59.0,29.87,WSW,240,0.0,9.0,47,0.00,,,0.01,weatherlink.com 1.10,2013-07-13 22:44:00,
2013-07-13 15:59:00,80.3,60.0,29.86,WSW,244,4.0,9.0,50,0.00,,,0.01,weatherlink.com 1.10,2013-07-13 22:59:00,
2013-07-13 16:14:00,79.7,59.0,29.86,West,279,2.0,7.0,50,0.00,,,0.01,weatherlink.com 1.10,2013-07-13 23:14:00,
2013-07-13 16:29:00,80.0,60.0,29.86,SSW,211,1.0,7.0,50,0.00,,,0.01,weatherlink.com 1.10,2013-07-13 23:29:00,
2013-07-13 16:44:00,80.3,60.0,29.86,West,270,0.0,5.0,50,0.00,,,0.01,weatherlink.com 1.10,2013-07-13 23:44:00,
2013-07-13 16:59:00,80.1,59.0,29.86,SW,214,2.0,6.0,48,0.00,,,0.01,weatherlink.com 1.10,2013-07-13 23:59:00,
2013-07-13 17:14:00,79.1,58.0,29.86,WSW,237,0.0,7.0,49,0.00,,,0.01,weatherlink.com 1.10,2013-07-14 00:14:00,
2013-07-13 17:29:00,78.6,58.0,29.85,South,169,0.0,7.0,49,0.00,,,0.01,weatherlink.com 1.10,2013-07-14 00:29:00,
2013-07-13 17:44:00,77.0,57.0,29.85,South,179,2.0,6.0,51,0.00,,,0.01,weatherlink.com 1.10,2013-07-14 00:44:00,
2013-07-13 17:59:00,76.1,59.0,29.85,SSW,207,0.0,2.0,55,0.00,,,0.01,weatherlink.com 1.10,2013-07-14 00:59:00,
2013-07-13 18:14:00,74.8,58.0,29.85,WSW,246,0.0,2.0,56,0.00,,,0.01,weatherlink.com 1.10,2013-07-14 01:14:00,
2013-07-13 18:29:00,74.1,57.0,29.85,SSE,150,0.0,2.0,56,0.00,,,0.01,weatherlink.com 1.10,2013-07-14 01:29:00,
2013-07-13 18:44:00,72.6,57.0,29.86,SE,142,1.0,3.0,58,0.00,,,0.01,weatherlink.com 1.10,2013-07-14 01:44:00,
2013-07-13 18:59:00,70.1,56.0,29.86,South,188,0.0,2.0,61,0.00,,,0.01,weatherlink.com 1.10,2013-07-14 01:59:00,
2013-07-13 19:14:00,67.0,55.0,29.86,SW,218,0.0,2.0,66,0.00,,,0.01,weatherlink.com 1.10,2013-07-14 02:14:00,
2013-07-13 19:29:00,65.2,55.0,29.86,SSW,207,0.0,1.0,69,0.00,,,0.01,weatherlink.com 1.10,2013-07-14 02:29:00,
2013-07-13 19:44:00,64.0,54.0,29.86,SSW,197,0.0,1.0,71,0.00,,,0.01,weatherlink.com 1.10,2013-07-14 02:44:00,
2013-07-13 19:59:00,62.1,54.0,29.86,SW,217,0.0,1.0,74,0.00,,,0.01,weatherlink.com 1.10,2013-07-14 02:59:00,
2013-07-13 20:14:00,60.7,53.0,29.86,SW,217,0.0,0.0,76,0.00,,,0.01,weatherlink.com 1.10,2013-07-14 03:14:00,
2013-07-13 20:30:00,59.0,53.0,29.86,SW,221,0.0,3.0,79,0.00,,,0.01,weatherlink.com 1.10,2013-07-14 03:30:00,
2013-07-13 20:45:00,57.6,52.0,29.87,South,175,0.0,0.0,81,0.00,,,0.01,weatherlink.com 1.10,2013-07-14 03:45:00,
2013-07-13 21:00:00,56.4,51.0,29.87,South,175,0.0,0.0,83,0.00,,,0.01,weatherlink.com 1.10,2013-07-14 04:00:00,
2013-07-13 21:15:00,55.3,51.0,29.87,South,175,0.0,1.0,85,0.00,,,0.01,weatherlink.com 1.10,2013-07-14 04:15:00,
2013-07-13 21:30:00,54.4,50.0,29.88,South,175,0.0,1.0,86,0.00,,,0.01,weatherlink.com 1.10,2013-07-14 04:30:00,
2013-07-13 21:45:00,53.6,50.0,29.89,South,175,0.0,0.0,88,0.00,,,0.01,weatherlink.com 1.10,2013-07-14 04:45:00,
2013-07-13 22:00:00,53.2,50.0,29.89,South,175,0.0,1.0,89,0.00,,,0.01,weatherlink.com 1.10,2013-07-14 05:00:00,
2013-07-13 22:15:00,52.8,50.0,29.89,South,173,0.0,1.0,90,0.00,,,0.01,weatherlink.com 1.10,2013-07-14 05:15:00,
2013-07-13 22:30:00,52.4,50.0,29.90,South,173,0.0,2.0,90,0.00,,,0.01,weatherlink.com 1.10,2013-07-14 05:30:00,
2013-07-13 22:45:00,52.1,49.0,29.90,South,173,0.0,0.0,90,0.00,,,0.01,weatherlink.com 1.10,2013-07-14 05:45:00,
2013-07-13 23:00:00,51.5,49.0,29.90,South,173,0.0,0.0,91,0.00,,,0.01,weatherlink.com 1.10,2013-07-14 06:00:00,
2013-07-13 23:15:00,51.1,49.0,29.90,South,173,0.0,0.0,91,0.00,,,0.01,weatherlink.com 1.10,2013-07-14 06:15:00,
2013-07-13 23:30:00,50.7,48.0,29.90,South,173,0.0,0.0,91,0.00,,,0.01,weatherlink.com 1.10,2013-07-14 06:30:00,
2013-07-13 23:45:00,50.3,48.0,29.90,South,173,0.0,0.0,92,0.00,,,0.01,weatherlink.com 1.10,2013-07-14 06:45:00,